Weather History for Pine Belt, MS

Change the Weather History Date:

Tuesday, March 19, 2013

  Actual Average Record
Temperature  
Mean Temperature 58 °F -  
Max Temperature 71 °F 68 °F 82 °F (2004)
Min Temperature 46 °F 45 °F 39 °F (2005)
Degree Days  
Heating Degree Days 6    
Growing Degree Days 8 (Base 50)    
Moisture  
Dew Point 40 °F    
Average Humidity 52    
Maximum Humidity 88    
Minimum Humidity 25    
Precipitation  
Precipitation 0.00 in - - ()
Sea Level Pressure  
Sea Level Pressure 30.04 in    
Wind  
Wind Speed 9 mph (NNE)    
Max Wind Speed 15 mph    
Max Gust Speed 20 mph    
Visibility 10 miles    
Events      
Averages and records for this station are not official NWS values.
T = Trace of Precipitation, MM = Missing Value Source: NWS Daily Summary

Daily Weather History Graph

Daily Weather History Graph

Search for Another Location

Airport:

Trip Planner

Search our weather history database for the weather conditions in past years. The results will help you decide how hot, cold, wet, or windy it might be!

Date:

Astronomy

Mar. 19, 2013 Rise Set
Actual Time 7:02 AM CDT 7:08 PM CDT
Civil Twilight 6:37 AM CDT 7:32 PM CDT
Nautical Twilight 6:09 AM CDT 8:00 PM CDT
Astronomical Twilight 5:41 AM CDT 8:29 PM CDT
Moon 12:12 PM CDT (3/19) 1:34 AM CDT (3/19)
Length of Visible Light 12h 54m
Length of Day
12h 06m
Waxing Crescent, 50% of the Moon is Illuminated
Mar 19
Waxing Crescent
Mar 19
First Quarter
Mar 27
Full
Apr 2
Last Quarter
Apr 10
New

Hourly Weather History & Observations

Time (CDT) Temp. Windchill Dew Point Humidity Pressure Visibility Wind Dir Wind Speed Gust Speed Precip Events Conditions
12:15 AM 60.8 °F - 55.4 °F 82% 29.94 in 10.0 mi NNW 4.6 mph - N/A   Partly Cloudy
12:35 AM 59.0 °F - 55.4 °F 88% 29.95 in 10.0 mi NNW 8.1 mph - N/A   Clear
12:55 AM 59.0 °F - 53.6 °F 82% 29.96 in 10.0 mi North 8.1 mph - N/A   Clear
1:35 AM 57.2 °F - 53.6 °F 88% 29.98 in 10.0 mi North 10.4 mph - N/A   Mostly Cloudy
1:55 AM 57.2 °F - 53.6 °F 88% 29.99 in 10.0 mi North 11.5 mph - N/A   Overcast
2:15 AM 57.2 °F - 53.6 °F 88% 30.00 in 10.0 mi North 10.4 mph - N/A   Overcast
2:35 AM 57.2 °F - 51.8 °F 82% 30.01 in 10.0 mi North 15.0 mph - N/A   Overcast
2:55 AM 55.4 °F - 48.2 °F 77% 30.01 in 10.0 mi North 12.7 mph 17.3 mph N/A   Mostly Cloudy
3:15 AM 53.6 °F - 46.4 °F 77% 30.01 in 10.0 mi North 12.7 mph - N/A   Mostly Cloudy
3:35 AM 53.6 °F - 46.4 °F 77% 30.01 in 10.0 mi North 11.5 mph - N/A   Mostly Cloudy
3:55 AM 51.8 °F - 46.4 °F 82% 30.01 in 10.0 mi North 12.7 mph 18.4 mph N/A   Scattered Clouds
4:15 AM 51.8 °F - 44.6 °F 76% 30.02 in 10.0 mi North 10.4 mph - N/A   Clear
4:35 AM 51.8 °F - 44.6 °F 76% 30.03 in 10.0 mi North 11.5 mph - N/A   Clear
4:55 AM 50.0 °F - 42.8 °F 76% 30.03 in 10.0 mi North 10.4 mph - N/A   Clear
5:15 AM 48.2 °F - 42.8 °F 82% 30.04 in 10.0 mi NNE 10.4 mph - N/A   Clear
5:35 AM 48.2 °F - 42.8 °F 82% 30.05 in 10.0 mi NNE 10.4 mph 16.1 mph N/A   Clear
5:55 AM 48.2 °F - 42.8 °F 82% 30.05 in 10.0 mi NNE 9.2 mph - N/A   Clear
6:15 AM 48.2 °F - 41.0 °F 76% 30.05 in 10.0 mi NNE 10.4 mph - N/A   Clear
6:35 AM 48.2 °F - 41.0 °F 76% 30.06 in 10.0 mi NNE 11.5 mph - N/A   Clear
6:55 AM 46.4 °F 42.4 °F 41.0 °F 81% 30.06 in 10.0 mi NNE 8.1 mph - N/A   Clear
7:15 AM 46.4 °F 42.4 °F 39.2 °F 76% 30.07 in 10.0 mi NNE 8.1 mph - N/A   Clear
7:35 AM 48.2 °F - 39.2 °F 71% 30.04 in 10.0 mi ENE 6.9 mph - N/A   Clear
7:55 AM 48.2 °F - 39.2 °F 71% 30.05 in 10.0 mi ENE 6.9 mph - N/A   Clear
8:15 AM 48.2 °F - 39.2 °F 71% 30.06 in 10.0 mi NE 8.1 mph - N/A   Clear
8:35 AM 50.0 °F - 37.4 °F 62% 30.07 in 10.0 mi NE 9.2 mph - N/A   Clear
8:55 AM 51.8 °F - 37.4 °F 58% 30.08 in 10.0 mi NE 9.2 mph - N/A   Clear
9:15 AM 53.6 °F - 37.4 °F 54% 30.07 in 10.0 mi ENE 11.5 mph 19.6 mph N/A   Clear
9:35 AM 53.6 °F - 37.4 °F 54% 30.08 in 10.0 mi NE 12.7 mph - N/A   Clear
9:55 AM 55.4 °F - 37.4 °F 51% 30.07 in 10.0 mi ENE 10.4 mph 16.1 mph N/A   Clear
10:15 AM 57.2 °F - 35.6 °F 44% 30.07 in 10.0 mi East 10.4 mph 16.1 mph N/A   Clear
10:35 AM 57.2 °F - 35.6 °F 44% 30.08 in 10.0 mi ENE 10.4 mph 16.1 mph N/A   Clear
10:55 AM 59.0 °F - 35.6 °F 42% 30.08 in 10.0 mi NE 10.4 mph - N/A   Clear
11:15 AM 60.8 °F - 37.4 °F 42% 30.08 in 10.0 mi NNE 8.1 mph - N/A   Clear
11:35 AM 62.6 °F - 37.4 °F 39% 30.08 in 10.0 mi ENE 5.8 mph - N/A   Clear
11:55 AM 64.4 °F - 37.4 °F 37% 30.08 in 10.0 mi NE 10.4 mph - N/A   Clear
12:15 PM 64.4 °F - 39.2 °F 40% 30.08 in 10.0 mi NNE 10.4 mph - N/A   Clear
12:35 PM 66.2 °F - 35.6 °F 32% 30.08 in 10.0 mi NNE 6.9 mph - N/A   Clear
12:55 PM 66.2 °F - 35.6 °F 32% 30.08 in 10.0 mi NE 6.9 mph - N/A   Clear
1:15 PM 68.0 °F - 35.6 °F 30% 30.07 in 10.0 mi ENE 9.2 mph 16.1 mph N/A   Clear
1:35 PM 68.0 °F - 33.8 °F 28% 30.07 in 10.0 mi NNE 3.5 mph - N/A   Clear
1:55 PM 69.8 °F - 35.6 °F 28% 30.05 in 10.0 mi NNE 12.7 mph 17.3 mph N/A   Clear
2:15 PM 69.8 °F - 35.6 °F 28% 30.05 in 10.0 mi NE 9.2 mph - N/A   Clear
2:35 PM 71.6 °F - 33.8 °F 25% 30.04 in 10.0 mi ENE 10.4 mph 17.3 mph N/A   Clear
2:55 PM 71.6 °F - 35.6 °F 27% 30.03 in 10.0 mi NE 11.5 mph - N/A   Clear
3:15 PM 71.6 °F - 35.6 °F 27% 30.02 in 10.0 mi NE 8.1 mph - N/A   Clear
3:35 PM 71.6 °F - 33.8 °F 25% 30.02 in 10.0 mi NE 11.5 mph - N/A   Clear
3:55 PM 71.6 °F - 33.8 °F 25% 30.02 in 10.0 mi NNE 6.9 mph - N/A   Clear
4:15 PM 71.6 °F - 33.8 °F 25% 30.01 in 10.0 mi ENE 5.8 mph - N/A   Clear
4:35 PM 71.6 °F - 33.8 °F 25% 30.00 in 10.0 mi NE 8.1 mph - N/A   Clear
4:55 PM 71.6 °F - 35.6 °F 27% 30.00 in 10.0 mi ENE 6.9 mph - N/A   Clear
5:15 PM 71.6 °F - 33.8 °F 25% 30.00 in 10.0 mi NE 9.2 mph - N/A   Clear
5:35 PM 71.6 °F - 33.8 °F 25% 30.00 in 10.0 mi ENE 8.1 mph - N/A   Clear
5:55 PM 69.8 °F - 33.8 °F 27% 30.01 in 10.0 mi NE 5.8 mph - N/A   Clear
6:15 PM 69.8 °F - 33.8 °F 27% 30.01 in 10.0 mi NNE 8.1 mph - N/A   Clear
6:35 PM 68.0 °F - 35.6 °F 30% 30.01 in 10.0 mi NNE 5.8 mph - N/A   Clear
6:55 PM 64.4 °F - 37.4 °F 37% 30.02 in 10.0 mi NNE 5.8 mph - N/A   Clear
7:15 PM 62.6 °F - 37.4 °F 39% 30.01 in 10.0 mi NNE 3.5 mph - N/A   Clear
7:35 PM 60.8 °F - 39.2 °F 45% 30.01 in 10.0 mi NNE 5.8 mph - N/A   Clear
7:55 PM 60.8 °F - 39.2 °F 45% 30.02 in 10.0 mi NNE 4.6 mph - N/A   Clear
8:15 PM 59.0 °F - 39.2 °F 48% 30.03 in 10.0 mi NNE 5.8 mph - N/A   Clear
8:35 PM 59.0 °F - 37.4 °F 45% 30.03 in 10.0 mi NNE 6.9 mph - N/A   Clear
8:55 PM 57.2 °F - 37.4 °F 48% 30.03 in 10.0 mi NNE 6.9 mph - N/A   Clear
9:15 PM 57.2 °F - 37.4 °F 48% 30.04 in 10.0 mi NNE 6.9 mph - N/A   Scattered Clouds
9:35 PM 57.2 °F - 37.4 °F 48% 30.05 in 10.0 mi NNE 8.1 mph - N/A   Partly Cloudy
9:55 PM 57.2 °F - 37.4 °F 48% 30.05 in 10.0 mi NNE 8.1 mph - N/A   Clear
10:15 PM 57.2 °F - 37.4 °F 48% 30.04 in 10.0 mi NNE 8.1 mph - N/A   Partly Cloudy
10:35 PM 57.2 °F - 37.4 °F 48% 30.06 in 10.0 mi North 8.1 mph - N/A   Mostly Cloudy
10:55 PM 57.2 °F - 35.6 °F 44% 30.06 in 10.0 mi North 8.1 mph - N/A   Scattered Clouds
11:15 PM 57.2 °F - 35.6 °F 44% 30.06 in 10.0 mi NNE 6.9 mph - N/A   Clear
11:35 PM 57.2 °F - 35.6 °F 44% 30.05 in 10.0 mi NNE 4.6 mph - N/A   Partly Cloudy
11:55 PM 55.4 °F - 37.4 °F 51% 30.05 in 10.0 mi North 5.8 mph - N/A   Scattered Clouds